Date String (YYYY-MM-DD hh:mm:ss) UTC,Instrument flags,absolute air pressure of the measurement (hPa),sample flow rate (lpm),inlet stack bypass flow (lpm),air temperature of the measurement (°C),ambient temperature measured by the external sensor (°C),aerosol sample conditioner tube jacket temperature (°C),OPC LED temperature (°C),internal box temperature (°C),relative humidity of the measurement (%),span deviation,mass concentration of particles derived from Lorenz-Mie calculation of OPC scattering (μg/m³),mass concentration of particles derived from Lorenz-Mie calculation of OPC scattering (μg/m³),mass concentration of particles derived from Lorenz-Mie calculation of OPC scattering (μg/m³)
DateTimeUTC,F1_M11,P_M11,Q1_M11,Q2_M11,T1_M11,T2_M11,T3_M11,T4_M11,T5_M11,U1_M11,ZSPAN_M11,X0_M11,X2_M11,X1_M11
2023-11-06 12:00:00,SystemResetWarning,0827.0,5.00,000.00,026.9,025.7,000.0,035.3,028.4,11.1,0000.0,0007.49,0003.69,0003.36
2023-11-06 12:01:00,SystemResetWarning,0826.9,4.99,000.00,026.9,025.7,000.0,035.3,028.4,11.1,0000.0,0007.47,0003.68,0003.34
2023-11-06 12:02:00,SystemResetWarning,0826.9,4.99,000.00,026.9,025.7,000.0,035.3,028.3,11.0,0000.0,0007.48,0003.66,0003.33
2023-11-06 12:03:00,SystemResetWarning,0826.9,5.00,000.00,026.9,025.7,000.0,035.3,028.3,11.0,0000.0,0007.47,0003.65,0003.30
2023-11-06 12:04:00,SystemResetWarning,0826.9,5.00,000.00,026.9,025.7,000.0,035.3,028.3,10.9,0000.0,0007.38,0003.62,0003.28
2023-11-06 12:05:00,SystemResetWarning,0826.8,5.00,000.00,026.9,025.7,000.0,035.3,028.3,10.9,0000.0,0007.17,0003.57,0003.28
2023-11-06 12:06:00,SystemResetWarning,0826.8,5.00,000.00,026.9,025.7,000.0,035.3,028.3,10.9,0000.0,0007.40,0003.59,0003.29
2023-11-06 12:07:00,SystemResetWarning,0826.8,5.00,000.00,026.9,025.7,000.0,035.3,028.2,10.9,0000.0,0007.34,0003.60,0003.29
2023-11-06 12:08:00,SystemResetWarning,0826.8,5.00,000.00,026.9,025.7,000.0,035.3,028.2,10.9,0000.0,0007.19,0003.64,0003.31
2023-11-06 12:09:00,SystemResetWarning,0826.8,5.00,000.00,026.9,025.6,000.0,035.3,028.2,10.9,0000.0,0007.78,0003.64,0003.31
2023-11-06 12:10:00,SystemResetWarning,0826.8,5.00,000.00,026.9,025.6,000.0,035.3,028.2,11.0,0000.0,0007.84,0003.62,0003.30
2023-11-06 12:11:00,SystemResetWarning,0826.7,5.00,000.00,026.9,025.6,000.0,035.3,028.2,11.0,0000.0,0007.48,0003.58,0003.29
2023-11-06 12:12:00,SystemResetWarning,0826.7,4.99,000.00,026.8,025.6,000.0,035.3,028.2,11.1,0000.0,0007.49,0003.58,0003.30
2023-11-06 12:13:00,SystemResetWarning,0826.7,5.00,000.00,026.8,025.6,000.0,035.3,028.2,11.2,0000.0,0007.90,0003.61,0003.29
2023-11-06 12:14:00,SystemResetWarning,0826.7,5.00,000.00,026.8,025.6,000.0,035.3,028.2,11.2,0000.0,0008.65,0003.64,0003.30
2023-11-06 12:15:00,SystemResetWarning,0826.6,5.00,000.00,026.8,025.6,000.0,035.3,028.2,11.2,0000.0,0008.66,0003.65,0003.29
2023-11-06 12:16:00,SystemResetWarning,0826.6,5.00,000.00,026.8,025.6,000.0,035.3,028.2,11.5,0000.0,0008.70,0003.66,0003.28
2023-11-06 12:17:00,SystemResetWarning,0826.6,5.00,000.00,026.8,025.6,000.0,035.3,028.2,11.7,0000.0,0008.54,0003.64,0003.26
2023-11-06 12:18:00,SystemResetWarning,0826.6,5.01,000.00,026.8,025.6,000.0,035.2,028.2,11.9,0000.0,0008.10,0003.61,0003.21
2023-11-06 12:19:00,SystemResetWarning,0826.6,5.00,000.00,026.8,025.6,000.0,035.2,028.2,11.9,0000.0,0007.99,0003.54,0003.15
2023-11-06 12:20:00,SystemResetWarning,0826.6,4.99,000.00,026.8,025.6,000.0,035.2,028.2,11.6,0000.0,0007.53,0003.49,0003.10
2023-11-06 12:21:00,SystemResetWarning,0826.6,5.00,000.00,026.8,025.6,000.0,035.2,028.2,11.3,0000.0,0007.50,0003.49,0003.05
2023-11-06 12:22:00,SystemResetWarning,0826.6,4.99,000.00,026.8,025.6,000.0,035.2,028.1,11.5,0000.0,0007.61,0003.50,0003.05
2023-11-06 12:23:00,SystemResetWarning,0826.6,5.00,000.00,026.8,025.6,000.0,035.2,028.1,11.4,0000.0,0008.59,0003.49,0003.04
2023-11-06 12:24:00,SystemResetWarning,0826.6,5.00,000.00,026.8,025.6,000.0,035.2,028.1,11.5,0000.0,0009.29,0003.47,0003.04
2023-11-06 12:25:00,SystemResetWarning,0826.6,5.01,000.00,026.8,025.5,000.0,035.2,028.1,11.6,0000.0,0008.50,0003.45,0003.05
2023-11-06 12:26:00,SystemResetWarning,0826.6,5.00,000.00,026.7,025.5,000.0,035.2,028.1,11.5,0000.0,0008.76,0003.46,0003.07
2023-11-06 12:27:00,SystemResetWarning,0826.6,5.01,000.00,026.7,025.5,000.0,035.2,028.1,11.5,0000.0,0008.97,0003.47,0003.09
2023-11-06 12:28:00,SystemResetWarning,0826.6,5.00,000.00,026.7,025.5,000.0,035.2,028.1,11.5,0000.0,0009.11,0003.48,0003.11
2023-11-06 12:29:00,SystemResetWarning,0826.6,5.00,000.00,026.7,025.5,000.0,035.2,028.1,11.5,0000.0,0009.41,0003.51,0003.14
2023-11-06 12:30:00,SystemResetWarning,0826.6,5.00,000.00,026.7,025.5,000.0,035.2,028.1,11.4,0000.0,0009.57,0003.57,0003.18
2023-11-06 12:31:00,SystemResetWarning,0826.6,5.00,000.00,026.7,025.5,000.0,035.2,028.0,11.4,0000.0,0009.55,0003.60,0003.22
2023-11-06 12:32:00,SystemResetWarning,0826.6,5.00,000.00,026.7,025.5,000.0,035.2,028.1,11.3,0000.0,0009.42,0003.62,0003.26
2023-11-06 12:33:00,SystemResetWarning,0826.6,4.99,000.00,026.7,025.5,000.0,035.2,028.1,11.4,0000.0,0009.59,0003.69,0003.27
2023-11-06 12:34:00,SystemResetWarning,0826.6,5.00,000.00,026.7,025.5,000.0,035.2,028.1,11.4,0000.0,0008.68,0003.69,0003.27
2023-11-06 12:35:00,SystemResetWarning,0826.7,5.00,000.00,026.7,025.5,000.0,035.2,028.0,11.4,0000.0,0007.63,0003.68,0003.27
2023-11-06 12:36:00,SystemResetWarning,0826.7,5.00,000.00,026.7,025.5,000.0,035.2,028.1,11.5,0000.0,0007.91,0003.69,0003.27
2023-11-06 12:37:00,SystemResetWarning,0826.8,5.01,000.00,026.7,025.5,000.0,035.1,028.0,11.6,0000.0,0007.64,0003.68,0003.26
2023-11-06 12:38:00,SystemResetWarning,0826.8,5.00,000.00,026.7,025.5,000.0,035.1,028.0,11.5,0000.0,0007.48,0003.67,0003.25
2023-11-06 12:39:00,SystemResetWarning,0826.8,5.00,000.00,026.7,025.5,000.0,035.1,028.0,11.5,0000.0,0007.34,0003.67,0003.24
2023-11-06 12:40:00,SystemResetWarning,0826.8,4.99,000.00,026.7,025.5,000.0,035.1,028.1,11.6,0000.0,0006.70,0003.65,0003.23
2023-11-06 12:41:00,SystemResetWarning,0826.8,5.00,000.00,026.7,025.5,000.0,035.1,028.1,11.6,0000.0,0006.65,0003.67,0003.23
2023-11-06 12:42:00,SystemResetWarning,0826.8,5.00,000.00,026.7,025.5,000.0,035.1,028.1,11.6,0000.0,0006.60,0003.65,0003.23
2023-11-06 12:43:00,SystemResetWarning,0826.8,5.00,000.00,026.7,025.5,000.0,035.1,028.0,11.5,0000.0,0006.59,0003.64,0003.23
2023-11-06 12:44:00,SystemResetWarning,0826.8,5.01,000.00,026.7,025.5,000.0,035.1,028.0,11.4,0000.0,0006.20,0003.58,0003.23
2023-11-06 12:45:00,SystemResetWarning,0826.8,5.01,000.00,026.7,025.5,000.0,035.1,028.0,11.5,0000.0,0005.99,0003.58,0003.24
2023-11-06 12:46:00,SystemResetWarning,0826.8,5.01,000.00,026.7,025.5,000.0,035.1,028.0,11.6,0000.0,0006.30,0003.60,0003.26
2023-11-06 12:47:00,SystemResetWarning,0826.8,5.00,000.00,026.7,025.5,000.0,035.1,028.1,11.6,0000.0,0006.39,0003.60,0003.27
2023-11-06 12:48:00,SystemResetWarning,0826.8,4.99,000.00,026.7,025.5,000.0,035.1,028.1,11.6,0000.0,0006.55,0003.61,0003.28
2023-11-06 12:49:00,SystemResetWarning,0826.9,5.00,000.00,026.7,025.5,000.0,035.1,028.1,11.7,0000.0,0006.52,0003.62,0003.28
2023-11-06 12:50:00,SystemResetWarning,0826.9,4.99,000.00,026.7,025.5,000.0,035.1,028.0,11.8,0000.0,0006.58,0003.61,0003.27
2023-11-06 12:51:00,SystemResetWarning,0826.9,5.00,000.00,026.7,025.5,000.0,035.1,028.0,11.8,0000.0,0006.73,0003.63,0003.26
2023-11-06 12:52:00,SystemResetWarning,0827.0,5.00,000.00,026.7,025.5,000.0,035.1,028.0,11.8,0000.0,0006.68,0003.60,0003.24
2023-11-06 12:53:00,SystemResetWarning,0826.9,5.00,000.00,026.7,025.5,000.0,035.1,028.1,11.8,0000.0,0007.31,0003.60,0003.22
2023-11-06 12:54:00,SystemResetWarning,0827.0,5.00,000.00,026.7,025.5,000.0,035.1,028.1,11.8,0000.0,0007.43,0003.60,0003.18
2023-11-06 12:55:00,SystemResetWarning,0827.0,5.00,000.00,026.7,025.5,000.0,035.1,028.1,11.9,0000.0,0007.77,0003.62,0003.15
2023-11-06 12:56:00,SystemResetWarning,0827.1,5.01,000.00,026.7,025.5,000.0,035.1,028.1,11.9,0000.0,0007.92,0003.61,0003.11
2023-11-06 12:57:00,SystemResetWarning,0827.1,5.00,000.00,026.7,025.5,000.0,035.1,028.1,11.9,0000.0,0007.88,0003.60,0003.06
2023-11-06 12:58:00,SystemResetWarning,0827.0,5.00,000.00,026.7,025.5,000.0,035.1,028.0,11.9,0000.0,0007.93,0003.55,0002.99
2023-11-06 12:59:00,SystemResetWarning,0827.0,5.00,000.00,026.7,025.5,000.0,035.1,028.0,11.9,0000.0,0007.92,0003.52,0002.92
